Wind_Speed
35 41 44 50 50 52 50 47 46 46 51 54 55 59 59 60 61 61 63 63 61 58 51 53 54 56 55 53 52 54 53 47 41 42 41 41 48 39 38 29 35 27 31 29 28
44 48 53 54 55 50 48 48 51 53 58 60 59 63 66 69 69 67 68 70 68 66 62 55 57 58 58 56 55 55 56 46 44 44 42 40 51 44 34 37 35 41 34 39 34
51 54 56 54 52 51 53 57 62 64 65 72 72 69 61 55 42 37 50 64 76 73 69 66 59 60 61 61 59 58 56 49 47 48 47 42 50 50 30 42 39 42 43 46 45
53 55 58 56 55 58 63 65 69 71 74 60 44 28 22 22 23 21 19 30 55 73 73 73 66 63 63 62 62 61 54 52 50 50 51 48 47 47 32 34 39 41 40 59 62
54 57 59 58 60 64 67 75 75 63 44 30 21 23 25 24 29 24 25 27 27 39 70 74 72 68 63 64 64 61 56 54 52 51 52 51 49 39 32 33 36 42 60 42 45
57 58 56 59 65 70 80 78 57 33 25 17 16 20 21 27 27 29 29 30 31 32 31 58 72 71 70 67 66 61 58 56 55 52 53 53 53 46 35 31 39 47 60 61 46
58 56 59 65 70 80 79 54 30 21 12 12 17 21 22 30 33 31 32 32 33 32 37 34 63 74 74 68 64 65 64 61 59 55 52 54 62 57 47 42 43 49 52 50 45
56 58 63 69 78 84 56 32 20 12 13 19 24 26 29 31 28 29 30 32 37 39 40 40 48 70 72 68 69 71 68 66 60 56 50 55 57 62 58 56 55 54 58 56 49
56 62 68 73 85 65 33 21 13 13 19 26 28 31 32 29 29 31 33 39 40 39 40 39 34 63 71 70 72 74 72 66 62 58 53 56 53 61 60 61 61 47 56 58 56
60 65 70 78 80 41 22 18 14 18 23 27 32 31 27 27 29 33 39 34 32 34 35 36 36 53 68 71 74 71 67 66 64 60 55 55 53 58 64 62 59 43 51 50 47
62 66 72 82 66 28 19 19 24 25 34 31 30 21 26 29 32 37 30 25 25 28 31 34 39 44 65 71 65 63 65 64 63 60 57 57 56 52 62 60 50 44 46 44 46
62 68 73 81 51 24 22 24 26 35 32 29 19 25 29 31 33 25 17 16 19 22 31 39 40 39 59 68 66 64 67 64 59 59 58 57 56 54 56 51 47 47 45 41 40
63 69 74 79 43 23 24 27 31 39 40 26 24 27 28 24 22 16 9 11 16 23 23 34 33 43 58 68 67 62 65 59 57 48 46 48 53 53 53 51 47 45 43 39 40
65 69 75 74 38 29 30 32 40 45 35 13 29 30 30 19 19 15 11 10 17 12 15 22 32 39 56 67 67 66 63 55 46 50 51 50 56 54 46 48 47 43 41 41 39
65 68 74 72 35 28 31 39 47 40 28 31 28 31 27 14 16 14 11 10 13 7 14 17 27 24 55 64 65 61 60 55 43 44 44 44 46 47 47 47 45 42 42 38 38
66 68 75 66 33 29 37 46 46 31 30 27 33 30 21 15 15 12 14 10 7 11 16 23 30 26 52 60 64 58 55 45 49 39 46 46 50 45 46 46 47 43 39 36 36
65 66 71 67 36 33 38 44 36 34 32 35 33 31 17 14 12 14 10 12 10 16 15 22 27 23 50 58 60 66 59 50 54 47 52 45 45 44 42 44 46 40 32 31 32
63 66 65 70 49 35 36 44 40 33 34 36 33 28 20 23 8 6 6 8 11 16 22 24 25 35 60 47 68 69 62 57 56 50 50 42 49 42 35 28 21 32 29 28 31
60 63 65 70 50 32 38 43 38 36 37 35 33 35 22 18 24 12 6 5 5 12 10 23 26 32 50 49 66 67 61 50 46 44 48 48 45 33 27 35 30 29 32 31 29
59 64 65 68 46 35 36 38 36 33 35 34 39 35 20 15 13 16 4 1 7 11 17 22 21 39 46 47 65 60 50 49 44 35 36 39 35 34 36 40 34 32 29 33 35
61 64 63 63 52 36 35 38 40 30 32 33 32 35 28 25 17 12 6 6 15 12 25 15 20 45 54 53 66 52 59 55 43 28 22 34 38 37 37 38 38 30 31 33 35
61 63 60 58 51 35 34 37 37 28 29 32 33 34 26 20 15 19 5 11 12 14 26 12 36 50 41 43 58 52 57 53 40 35 32 32 38 33 31 34 31 23 33 37 41
59 62 60 58 58 37 29 34 34 25 23 35 30 29 32 29 18 16 16 15 6 16 27 34 29 53 46 59 58 63 54 50 44 42 41 38 40 33 36 34 33 31 29 37 26
57 58 59 56 57 49 35 34 29 22 21 26 27 24 26 28 22 13 8 11 4 10 25 3 50 52 43 52 58 58 51 35 40 47 40 45 41 44 43 41 38 39 36 20 24
56 59 61 54 53 55 35 29 28 23 27 23 23 22 19 14 21 19 3 3 3 8 25 14 48 50 45 56 55 48 49 41 43 37 40 43 38 38 43 42 38 37 37 31 27
52 55 57 55 53 53 44 26 27 21 21 18 23 22 15 14 9 11 10 9 7 22 20 12 36 45 50 56 50 49 42 33 43 32 36 39 40 35 32 33 33 30 34 33 32
49 52 56 54 50 49 47 33 26 23 20 21 22 21 15 15 11 12 16 13 19 20 16 18 39 51 53 43 45 44 40 36 23 26 37 43 41 33 28 23 24 30 34 28 24
Wind_Direction
335 332 330 325 321 317 311 302 298 293 294 291 287 283 278 273 264 257 252 249 245 244 241 239 233 230 229 228 227 227 226 223 221 220 216 204 196 208 210 207 221 236 235 234 226
335 330 328 326 321 313 308 302 299 301 301 297 292 289 282 281 273 259 249 244 244 240 239 236 235 228 226 225 226 228 229 223 218 215 214 203 202 202 216 203 210 228 237 240 239
336 334 332 329 322 315 310 306 308 305 303 300 296 290 281 275 269 263 254 247 240 240 237 235 234 230 225 222 225 225 226 223 217 215 212 204 203 205 213 204 221 225 231 241 242
340 338 334 329 322 316 313 312 308 305 303 295 287 268 260 262 270 276 274 252 241 238 235 232 232 232 226 222 222 223 222 220 216 216 214 208 203 189 218 220 239 221 224 229 240
340 341 335 326 320 318 317 314 313 305 293 286 257 248 264 274 281 283 273 264 258 249 235 229 227 228 225 221 218 221 219 218 215 216 211 203 191 179 195 213 240 254 251 228 242
344 341 332 328 325 324 321 322 310 307 297 280 279 272 274 282 285 285 282 277 264 258 255 231 225 222 222 218 217 214 216 216 215 212 214 207 189 183 189 219 212 232 242 241 235
346 339 334 331 330 327 328 320 322 317 309 306 301 292 294 290 289 284 275 265 258 262 254 252 222 220 218 215 214 213 211 215 213 209 212 210 187 188 191 198 224 231 240 247 247
345 340 338 335 334 336 330 333 342 342 324 319 316 312 304 299 293 285 274 263 254 253 251 247 228 219 216 215 212 211 211 210 210 210 203 213 203 198 199 208 214 232 239 245 243
345 343 341 339 339 338 340 351 347 341 333 318 317 313 306 301 287 278 271 263 260 253 247 242 240 214 214 210 211 210 209 207 209 208 204 211 211 204 202 213 222 230 237 247 246
346 344 343 342 346 346 350 354 336 331 326 317 313 308 304 295 295 285 274 271 257 244 240 242 238 219 208 208 209 209 209 207 210 207 209 214 209 204 210 218 224 229 239 245 253
347 347 345 345 351 354 353 346 339 331 325 320 318 310 308 306 302 290 284 267 252 251 249 243 235 226 206 205 205 209 208 211 208 210 209 214 213 205 209 220 224 225 235 239 246
349 349 348 349 352 359 358 345 335 335 336 326 312 317 320 315 305 299 279 261 261 263 258 246 236 225 204 201 198 204 204 206 209 208 207 210 217 206 207 218 221 223 231 237 244
350 351 350 353 351 2 359 349 339 338 338 331 330 318 321 328 317 313 278 279 292 279 259 241 218 211 200 195 192 201 203 197 204 200 206 206 214 211 210 214 219 223 229 233 240
352 352 353 357 357 355 347 343 340 338 337 328 326 322 329 335 330 313 302 295 317 276 283 228 202 205 197 190 190 197 196 187 191 191 207 206 213 216 212 217 221 221 225 228 234
353 353 355 359 357 347 349 350 350 350 354 339 327 321 325 336 324 310 289 309 307 236 237 209 191 198 195 183 189 190 190 187 182 201 198 208 211 215 209 216 221 223 225 227 236
354 354 357 1 352 353 358 354 350 359 360 347 332 312 324 313 326 308 291 280 278 213 233 201 194 187 186 175 185 178 175 164 169 183 189 206 210 210 211 215 221 222 223 225 230
354 356 357 2 355 1 359 355 360 5 357 353 357 344 345 321 326 315 298 298 281 216 202 201 185 175 180 175 178 165 162 167 177 183 188 200 213 210 209 213 222 224 227 228 233
353 356 354 357 3 4 357 359 4 3 358 356 4 358 348 331 309 1 265 284 255 208 197 195 188 176 176 172 177 163 166 169 181 182 175 194 208 205 208 199 204 221 219 225 231
355 357 354 2 5 358 6 2 4 4 2 0 1 2 350 348 336 2 355 15 171 175 165 180 171 179 186 163 174 164 167 163 168 173 181 200 206 171 186 205 196 202 204 208 215
356 357 357 5 3 1 1 2 4 3 4 12 15 4 1 359 360 357 33 325 193 164 173 166 167 173 176 170 180 163 158 157 169 170 187 199 176 173 195 196 202 202 200 200 207
358 356 2 5 4 3 357 1 3 3 5 8 12 14 2 22 38 42 43 5 114 159 169 153 155 171 180 167 174 162 159 159 159 151 166 177 168 180 197 202 203 207 204 204 206
359 358 1 4 6 2 358 360 0 4 14 14 8 2 9 3 16 28 22 118 105 166 173 155 162 169 161 148 176 156 160 157 156 167 159 167 168 180 201 207 198 202 198 207 214
360 358 360 1 7 5 1 7 2 7 6 15 5 12 19 26 22 51 60 141 156 171 184 140 155 167 178 169 166 157 149 159 166 170 168 174 174 195 200 207 213 215 216 212 211
359 359 359 0 5 6 6 6 11 9 10 11 7 21 26 20 21 66 105 53 91 151 184 181 164 167 170 161 156 152 155 170 173 173 177 175 180 189 200 210 215 215 223 214 208
357 356 358 0 0 5 4 2 5 8 10 23 21 12 29 12 33 26 65 310 2 140 181 131 163 175 159 167 159 159 161 157 167 174 177 172 186 189 199 209 216 222 224 223 220
354 356 353 357 356 5 3 358 5 4 359 17 359 15 14 14 23 56 48 105 184 181 187 207 167 164 158 168 160 159 157 162 173 164 177 189 191 200 205 212 215 214 212 216 219
355 352 351 354 356 2 2 4 1 5 353 349 358 359 15 12 31 65 125 127 152 176 180 173 154 169 170 175 163 160 161 148 176 166 185 183 196 194 203 212 212 207 209 206 209
Height
5813 5807 5801 5794 5787 5779 5772 5766 5760 5755 5751 5746 5740 5738 5737 5738 5739 5739 5743 5746 5750 5753 5760 5764 5768 5774 5779 5785 5791 5795 5800 5812 5823 5829 5841 5850 5853 5861 5865 5869 5864 5859 5862 5867 5877
5804 5798 5791 5783 5774 5765 5757 5751 5745 5738 5731 5725 5717 5713 5711 5711 5712 5716 5718 5722 5726 5734 5741 5748 5753 5758 5765 5773 5777 5784 5793 5809 5816 5821 5830 5840 5847 5847 5855 5862 5856 5854 5856 5863 5874
5797 5789 5780 5771 5762 5754 5746 5737 5728 5718 5708 5701 5694 5688 5687 5687 5687 5689 5692 5697 5703 5713 5722 5728 5737 5743 5752 5759 5767 5774 5785 5799 5807 5813 5820 5827 5836 5844 5843 5850 5852 5852 5854 5858 5868
5787 5778 5770 5760 5751 5741 5730 5718 5707 5695 5683 5674 5670 5671 5674 5677 5678 5678 5680 5680 5682 5690 5700 5709 5720 5728 5737 5747 5754 5762 5777 5787 5796 5803 5810 5820 5829 5833 5838 5844 5841 5844 5847 5854 5859
5778 5769 5759 5750 5738 5725 5712 5698 5683 5670 5661 5658 5661 5664 5667 5669 5667 5670 5671 5670 5673 5672 5679 5689 5699 5710 5723 5734 5742 5753 5767 5775 5784 5793 5801 5811 5818 5826 5829 5839 5843 5840 5839 5851 5859
5770 5760 5750 5739 5725 5709 5693 5675 5659 5653 5651 5653 5656 5658 5661 5660 5661 5658 5658 5658 5659 5661 5663 5668 5681 5693 5704 5717 5729 5745 5755 5764 5773 5783 5792 5801 5812 5814 5825 5831 5834 5835 5836 5847 5861
5762 5752 5740 5727 5711 5693 5672 5655 5649 5646 5647 5649 5651 5651 5653 5649 5649 5648 5647 5648 5648 5650 5653 5655 5662 5672 5687 5704 5723 5731 5740 5749 5758 5773 5785 5794 5799 5807 5819 5826 5829 5834 5836 5837 5847
5755 5743 5731 5715 5697 5676 5656 5648 5646 5646 5646 5646 5645 5644 5642 5641 5638 5636 5636 5636 5636 5636 5640 5643 5646 5660 5679 5696 5705 5711 5722 5732 5752 5764 5777 5782 5796 5804 5811 5816 5822 5832 5830 5829 5837
5748 5735 5721 5705 5685 5663 5651 5648 5647 5646 5645 5642 5639 5637 5633 5631 5628 5626 5624 5624 5624 5625 5629 5633 5637 5646 5662 5679 5687 5696 5711 5731 5741 5756 5767 5774 5789 5799 5803 5809 5817 5828 5824 5820 5830
5741 5727 5712 5694 5676 5657 5652 5649 5647 5645 5643 5638 5633 5632 5627 5623 5619 5615 5610 5609 5610 5614 5618 5622 5626 5632 5644 5657 5672 5695 5714 5727 5736 5749 5759 5768 5781 5791 5796 5802 5810 5821 5821 5825 5828
5734 5719 5704 5686 5669 5657 5652 5649 5647 5645 5638 5633 5627 5622 5619 5614 5610 5603 5599 5599 5601 5604 5607 5609 5613 5619 5635 5651 5682 5698 5708 5722 5730 5740 5752 5760 5768 5783 5789 5795 5805 5814 5817 5823 5825
5728 5713 5699 5679 5665 5657 5652 5648 5644 5639 5636 5626 5620 5616 5610 5606 5598 5592 5590 5591 5592 5594 5592 5595 5601 5613 5625 5647 5664 5680 5693 5707 5723 5731 5740 5751 5761 5774 5781 5789 5799 5806 5813 5820 5824
5724 5708 5693 5675 5664 5658 5651 5646 5641 5633 5626 5619 5615 5610 5607 5600 5593 5588 5588 5587 5587 5583 5581 5580 5598 5601 5615 5634 5649 5666 5682 5699 5712 5724 5733 5745 5750 5762 5775 5784 5791 5799 5808 5815 5819
5719 5705 5689 5672 5662 5655 5649 5644 5636 5627 5618 5615 5609 5604 5599 5594 5589 5584 5583 5583 5580 5577 5575 5576 5585 5592 5607 5623 5640 5655 5676 5692 5707 5719 5724 5735 5746 5755 5768 5777 5785 5795 5801 5808 5813
5715 5701 5687 5671 5659 5656 5650 5641 5629 5620 5615 5611 5604 5598 5593 5590 5586 5582 5579 5578 5577 5575 5575 5580 5586 5591 5600 5619 5638 5661 5672 5688 5703 5716 5723 5729 5741 5753 5763 5770 5779 5788 5795 5803 5805
5713 5698 5683 5668 5662 5655 5644 5636 5629 5622 5614 5609 5603 5595 5588 5585 5582 5580 5577 5574 5574 5574 5572 5576 5583 5586 5599 5620 5638 5661 5669 5684 5697 5709 5715 5722 5734 5743 5756 5769 5773 5781 5790 5796 5801
5712 5698 5685 5672 5660 5652 5644 5638 5630 5617 5615 5608 5600 5592 5585 5582 5579 5575 5573 5572 5571 5572 5574 5577 5584 5591 5605 5615 5634 5644 5657 5672 5683 5693 5704 5719 5728 5745 5754 5761 5768 5778 5787 5793 5797
5712 5698 5689 5675 5658 5652 5645 5637 5625 5620 5613 5605 5598 5591 5584 5578 5575 5572 5570 5568 5567 5569 5572 5577 5584 5589 5599 5607 5626 5637 5648 5658 5673 5685 5703 5715 5723 5738 5752 5759 5767 5774 5783 5789 5793
5713 5699 5687 5671 5658 5653 5645 5636 5627 5619 5613 5604 5598 5591 5585 5580 5576 5573 5569 5567 5565 5568 5573 5579 5586 5594 5605 5615 5627 5637 5648 5668 5684 5698 5701 5711 5723 5739 5746 5752 5758 5768 5776 5783 5789
5712 5698 5683 5670 5659 5651 5646 5639 5630 5620 5614 5607 5598 5592 5585 5578 5575 5571 5569 5569 5570 5572 5576 5581 5589 5598 5605 5614 5627 5640 5655 5665 5679 5692 5702 5711 5725 5731 5737 5748 5752 5761 5770 5777 5783
5709 5697 5683 5670 5661 5655 5646 5637 5629 5623 5616 5609 5601 5594 5588 5581 5575 5572 5572 5571 5573 5574 5577 5580 5586 5598 5601 5615 5629 5640 5649 5664 5682 5696 5703 5711 5723 5729 5737 5743 5749 5758 5766 5772 5778
5708 5699 5687 5677 5666 5655 5648 5638 5631 5625 5620 5613 5605 5598 5592 5586 5580 5576 5575 5576 5579 5578 5581 5582 5589 5599 5613 5625 5639 5650 5660 5667 5680 5692 5702 5713 5722 5728 5732 5737 5748 5754 5762 5764 5768
5710 5698 5687 5676 5669 5658 5651 5641 5632 5627 5622 5616 5608 5603 5597 5590 5585 5580 5579 5582 5582 5583 5583 5589 5596 5602 5609 5625 5628 5638 5651 5666 5675 5685 5693 5707 5716 5724 5731 5737 5744 5749 5754 5760 5771
5712 5703 5691 5678 5667 5659 5649 5643 5636 5630 5625 5619 5613 5609 5603 5597 5591 5589 5588 5589 5588 5589 5592 5593 5599 5610 5618 5631 5640 5643 5654 5664 5675 5684 5694 5705 5711 5719 5727 5733 5739 5746 5751 5760 5767
5711 5699 5688 5682 5672 5661 5651 5645 5638 5632 5626 5621 5617 5612 5609 5604 5600 5596 5595 5594 5593 5594 5597 5600 5606 5615 5622 5635 5644 5648 5656 5669 5680 5689 5696 5703 5711 5717 5725 5731 5738 5744 5750 5756 5762
5712 5703 5690 5681 5671 5660 5653 5646 5639 5634 5630 5626 5620 5614 5612 5609 5607 5603 5602 5601 5599 5601 5602 5603 5609 5618 5628 5638 5644 5658 5665 5673 5678 5685 5695 5704 5707 5717 5723 5729 5736 5742 5747 5753 5757
5710 5700 5690 5681 5672 5664 5655 5646 5641 5636 5631 5626 5622 5618 5616 5615 5612 5610 5608 5608 5607 5609 5609 5610 5613 5622 5632 5640 5647 5657 5665 5667 5673 5684 5694 5698 5708 5715 5720 5727 5733 5738 5742 5750 5756